TimeEDT,TemperatureF,Dew PointF,Humidity,Sea Level PressureIn,VisibilityMPH,Wind Direction,Wind SpeedMPH,Gust SpeedMPH,PrecipitationIn,Events,Conditions,WindDirDegrees,DateUTC
12:15 AM,33.4,26.4,75,30.18,10.0,NW,8.1,-,N/A,,Overcast,310,2013-03-28 04:15:00
12:35 AM,33.6,26.4,75,30.18,10.0,NW,8.1,-,N/A,,Overcast,310,2013-03-28 04:35:00
12:55 AM,33.4,26.2,75,30.18,10.0,NW,8.1,-,N/A,,Overcast,310,2013-03-28 04:55:00
1:15 AM,33.3,26.4,76,30.18,10.0,WNW,5.8,-,N/A,,Overcast,290,2013-03-28 05:15:00
1:35 AM,32.9,27.0,79,30.18,10.0,WNW,5.8,-,N/A,,Overcast,290,2013-03-28 05:35:00
1:55 AM,32.9,27.1,79,30.18,10.0,WNW,4.6,-,N/A,,Overcast,290,2013-03-28 05:55:00
2:15 AM,32.7,27.3,81,30.18,10.0,West,5.8,-,N/A,,Overcast,280,2013-03-28 06:15:00
2:34 AM,32.5,27.1,80,30.18,10.0,West,5.8,-,N/A,,Overcast,280,2013-03-28 06:34:00
2:55 AM,32.4,27.3,82,30.18,10.0,West,5.8,-,N/A,,Overcast,270,2013-03-28 06:55:00
3:15 AM,32.2,27.1,82,30.18,10.0,West,5.8,-,N/A,,Overcast,270,2013-03-28 07:15:00
3:35 AM,32.2,27.3,82,30.18,10.0,West,4.6,-,N/A,,Overcast,260,2013-03-28 07:35:00
3:55 AM,32.2,27.3,82,30.18,10.0,West,6.9,-,N/A,,Overcast,260,2013-03-28 07:55:00
4:14 AM,32.2,27.3,82,30.18,10.0,West,8.1,-,N/A,,Overcast,270,2013-03-28 08:14:00
4:35 AM,32.0,27.1,82,30.18,10.0,West,6.9,-,N/A,,Overcast,270,2013-03-28 08:35:00
4:55 AM,32.0,27.1,82,30.18,10.0,West,5.8,-,N/A,,Overcast,280,2013-03-28 08:55:00
5:15 AM,31.8,27.1,83,30.18,10.0,West,5.8,-,N/A,,Overcast,280,2013-03-28 09:15:00
5:35 AM,31.5,27.1,84,30.18,10.0,West,4.6,-,N/A,,Overcast,280,2013-03-28 09:35:00
5:55 AM,31.3,27.1,85,30.18,10.0,West,5.8,-,N/A,,Overcast,270,2013-03-28 09:55:00
6:15 AM,31.1,27.1,85,30.19,10.0,West,5.8,-,N/A,,Overcast,280,2013-03-28 10:15:00
6:35 AM,30.7,26.6,85,30.19,10.0,West,5.8,-,N/A,,Mostly Cloudy,270,2013-03-28 10:35:00
6:55 AM,30.6,26.8,86,30.20,10.0,West,5.8,-,N/A,,Mostly Cloudy,280,2013-03-28 10:55:00
7:15 AM,30.2,26.6,86,30.20,10.0,West,5.8,-,N/A,,Scattered Clouds,280,2013-03-28 11:15:00
7:34 AM,29.8,26.6,88,30.21,10.0,West,4.6,-,N/A,,Clear,270,2013-03-28 11:34:00
8:15 AM,29.8,26.8,88,30.21,10.0,West,4.6,-,N/A,,Clear,280,2013-03-28 12:15:00
8:35 AM,31.5,27.3,85,30.21,10.0,WNW,5.8,-,N/A,,Clear,290,2013-03-28 12:35:00
8:55 AM,32.2,27.5,83,30.21,10.0,WNW,5.8,-,N/A,,Clear,290,2013-03-28 12:55:00
9:15 AM,32.7,27.5,81,30.22,10.0,WNW,4.6,-,N/A,,Clear,290,2013-03-28 13:15:00
9:35 AM,34.7,27.3,74,30.22,10.0,WNW,4.6,-,N/A,,Clear,290,2013-03-28 13:35:00
9:55 AM,36.5,26.2,66,30.22,10.0,NNW,5.8,-,N/A,,Clear,330,2013-03-28 13:55:00
10:15 AM,37.4,25.2,61,30.22,10.0,NNW,5.8,-,N/A,,Clear,330,2013-03-28 14:15:00
10:35 AM,38.3,24.8,58,30.22,10.0,NNW,5.8,-,N/A,,Clear,340,2013-03-28 14:35:00
10:55 AM,39.6,23.2,52,30.22,10.0,NNW,5.8,-,N/A,,Clear,330,2013-03-28 14:55:00
11:15 AM,40.3,22.3,49,30.22,10.0,NW,9.2,-,N/A,,Clear,320,2013-03-28 15:15:00
11:35 AM,41.0,21.4,46,30.22,10.0,NW,10.4,-,N/A,,Clear,320,2013-03-28 15:35:00
11:55 AM,41.5,23.5,49,30.22,10.0,NNW,4.6,-,N/A,,Clear,330,2013-03-28 15:55:00
12:15 PM,41.0,23.9,51,30.22,10.0,NW,5.8,-,N/A,,Clear,310,2013-03-28 16:15:00
12:35 PM,42.8,22.5,45,30.22,10.0,West,8.1,-,N/A,,Clear,280,2013-03-28 16:35:00
12:55 PM,42.6,23.5,47,30.22,10.0,West,8.1,-,N/A,,Clear,270,2013-03-28 16:55:00
1:14 PM,43.2,24.3,47,30.22,10.0,West,6.9,-,N/A,,Clear,280,2013-03-28 17:14:00
1:35 PM,43.7,23.5,45,30.22,10.0,West,8.1,-,N/A,,Clear,270,2013-03-28 17:35:00
1:55 PM,43.7,24.3,46,30.22,10.0,WNW,6.9,-,N/A,,Clear,290,2013-03-28 17:55:00
2:15 PM,43.9,25.2,48,30.22,10.0,West,6.9,-,N/A,,Clear,270,2013-03-28 18:15:00
2:35 PM,44.1,25.7,49,30.21,10.0,West,5.8,9.2,N/A,,Clear,280,2013-03-28 18:35:00
2:55 PM,44.2,26.1,49,30.21,10.0,West,8.1,-,N/A,,Clear,280,2013-03-28 18:55:00
3:15 PM,44.6,25.3,47,30.21,10.0,WNW,8.1,-,N/A,,Clear,300,2013-03-28 19:15:00
3:35 PM,44.6,25.7,48,30.20,10.0,WNW,11.5,-,N/A,,Clear,290,2013-03-28 19:35:00
3:55 PM,44.6,25.7,48,30.20,10.0,West,9.2,-,N/A,,Clear,280,2013-03-28 19:55:00
4:15 PM,44.8,25.0,46,30.20,10.0,West,11.5,17.3,N/A,,Clear,260,2013-03-28 20:15:00
4:35 PM,44.6,25.3,47,30.20,10.0,West,10.4,16.1,N/A,,Clear,270,2013-03-28 20:35:00
4:55 PM,44.8,24.3,45,30.20,10.0,West,10.4,-,N/A,,Clear,280,2013-03-28 20:55:00
5:15 PM,44.8,24.4,45,30.20,10.0,West,9.2,17.3,N/A,,Clear,260,2013-03-28 21:15:00
5:35 PM,44.2,24.6,46,30.20,10.0,West,10.4,-,N/A,,Clear,270,2013-03-28 21:35:00
5:55 PM,44.2,23.2,43,30.20,10.0,West,13.8,18.4,N/A,,Clear,260,2013-03-28 21:55:00
6:15 PM,43.7,23.2,44,30.20,10.0,West,10.4,19.6,N/A,,Clear,280,2013-03-28 22:15:00
6:35 PM,43.2,22.1,43,30.20,10.0,WNW,12.7,-,N/A,,Clear,290,2013-03-28 22:35:00
6:55 PM,42.8,21.4,43,30.21,10.0,West,12.7,17.3,N/A,,Clear,270,2013-03-28 22:55:00
7:15 PM,41.7,23.0,47,30.21,10.0,West,6.9,10.4,N/A,,Clear,260,2013-03-28 23:15:00
7:35 PM,40.5,23.2,50,30.21,10.0,West,9.2,-,N/A,,Clear,270,2013-03-28 23:35:00
7:55 PM,39.2,22.6,52,30.22,10.0,West,8.1,-,N/A,,Clear,260,2013-03-28 23:55:00
8:15 PM,38.3,22.6,53,30.22,10.0,West,5.8,-,N/A,,Clear,260,2013-03-29 00:15:00
8:35 PM,37.0,22.6,56,30.22,10.0,West,8.1,-,N/A,,Clear,260,2013-03-29 00:35:00
8:55 PM,36.5,23.0,58,30.22,10.0,West,8.1,-,N/A,,Clear,260,2013-03-29 00:55:00
9:15 PM,35.8,23.0,60,30.23,10.0,West,6.9,-,N/A,,Clear,260,2013-03-29 01:15:00
9:35 PM,34.9,23.0,62,30.23,10.0,West,6.9,-,N/A,,Clear,260,2013-03-29 01:35:00
9:55 PM,34.3,23.0,63,30.23,10.0,West,6.9,-,N/A,,Clear,260,2013-03-29 01:55:00
10:15 PM,33.4,23.5,67,30.24,10.0,West,6.9,-,N/A,,Scattered Clouds,270,2013-03-29 02:15:00
10:35 PM,32.9,23.7,69,30.24,10.0,West,6.9,-,N/A,,Scattered Clouds,270,2013-03-29 02:35:00
10:55 PM,32.4,23.9,71,30.24,10.0,West,5.8,-,N/A,,Scattered Clouds,270,2013-03-29 02:55:00
11:15 PM,32.0,23.5,71,30.24,10.0,West,4.6,-,N/A,,Scattered Clouds,260,2013-03-29 03:15:00
11:35 PM,31.8,23.0,70,30.24,10.0,WSW,5.8,-,N/A,,Clear,250,2013-03-29 03:35:00
11:55 PM,31.1,23.5,74,30.25,10.0,West,4.6,-,N/A,,Clear,260,2013-03-29 03:55:00